AKDT,Max TemperatureF,Mean TemperatureF,Min TemperatureF,Max Dew PointF,MeanDew PointF,Min DewpointF,Max Humidity, Mean Humidity, Min Humidity, Max Sea Level PressureIn, Mean Sea Level PressureIn, Min Sea Level PressureIn, Max VisibilityMiles, Mean VisibilityMiles, Min VisibilityMiles, Max Wind SpeedMPH, Mean Wind SpeedMPH, Max Gust SpeedMPH,PrecipitationIn, CloudCover, Events, WindDirDegrees
2012-3-1,11,-4,-20,-4,-13,-23,86,66,51,29.91,29.67,29.56,10,10,9,13,8,,0.00,1,,28
2012-3-2,10,1,-9,-2,-8,-14,85,67,58,29.64,29.55,29.51,10,9,4,13,7,,T,6,Snow,66
2012-3-3,4,-6,-16,0,-7,-20,91,81,72,30.04,29.89,29.67,10,6,1,6,1,,0.03,7,Snow,348
2012-3-4,-1,-11,-21,-9,-15,-23,91,80,66,30.30,30.21,30.06,10,8,3,5,0,,T,5,Snow,120
2012-3-5,11,-9,-30,7,-7,-31,92,78,56,30.30,29.93,29.62,10,6,1,9,3,,0.09,6,Snow,38
2012-3-6,25,17,8,21,14,5,93,87,75,29.71,29.62,29.58,10,2,0,13,2,23,0.28,8,Snow,217
2012-3-7,25,17,8,22,19,8,96,90,84,29.88,29.81,29.72,10,4,1,7,2,,0.17,7,Fog-Snow,213
2012-3-8,20,4,-13,12,2,-16,92,80,65,29.88,29.60,29.29,10,10,7,14,3,,0.00,4,,18
2012-3-9,17,4,-10,6,1,-11,87,75,59,29.60,29.40,29.25,10,5,1,16,9,,0.05,8,Snow,28
2012-3-10,2,-10,-22,-6,-14,-25,96,81,69,29.73,29.68,29.57,10,8,2,7,2,,0.01,5,Snow,174
2012-3-11,-1,-14,-28,-8,-17,-28,86,79,71,29.88,29.79,29.72,10,7,5,7,1,,0.01,6,Snow,186
2012-3-12,8,-1,-10,-5,-10,-16,83,71,55,29.88,29.71,29.43,10,8,3,10,2,,0.03,7,Snow,35
2012-3-13,16,-1,-18,-1,-11,-21,82,66,49,29.40,29.27,29.21,10,10,10,12,6,,0.00,5,,31
2012-3-14,19,7,-5,2,-5,-11,69,60,47,29.31,29.29,29.25,10,10,10,12,9,,0.00,6,,24
2012-3-15,20,6,-8,1,-6,-11,87,61,45,29.32,29.29,29.25,10,10,10,15,9,,0.00,5,,52
2012-3-16,11,0,-11,-5,-9,-15,87,65,48,29.66,29.49,29.34,10,10,10,12,6,,0.00,2,,50
2012-3-17,6,-7,-20,-8,-15,-22,82,67,52,29.84,29.76,29.68,10,10,10,7,4,,0.00,3,,176
2012-3-18,7,-7,-21,-3,-14,-25,86,74,58,29.87,29.84,29.80,10,10,7,6,1,,T,5,Snow,179
2012-3-19,8,-6,-20,-4,-12,-23,86,73,55,29.87,29.84,29.82,10,10,10,9,1,,T,6,,209
2012-3-20,9,2,-5,-3,-7,-14,87,69,46,29.92,29.88,29.85,10,9,6,13,2,,0.02,6,Snow,317
2012-3-21,14,1,-12,-9,-13,-18,71,51,34,30.10,29.97,29.91,10,10,10,13,7,,0.00,3,,7
2012-3-22,10,-4,-19,-11,-17,-24,78,58,40,30.27,30.22,30.12,10,10,10,8,5,,0.00,1,,57
2012-3-23,23,5,-13,5,-8,-20,71,54,38,30.22,30.02,29.87,10,10,10,10,7,,T,4,Snow,30
2012-3-24,26,19,11,17,13,7,92,81,63,29.99,29.94,29.88,10,6,2,8,3,,0.02,7,Snow,78
2012-3-25,29,15,1,13,7,0,92,73,45,29.99,29.89,29.77,10,10,9,7,2,,0.00,6,,110
2012-3-26,30,12,-7,9,4,-8,87,64,41,29.76,29.69,29.63,10,10,10,9,1,,0.00,3,,24
2012-3-27,37,19,1,15,7,-3,76,58,39,29.64,29.50,29.32,10,10,10,13,7,,0.00,3,,38
2012-3-28,44,29,13,18,12,7,71,52,28,29.31,29.25,29.19,10,10,10,12,7,,0.00,3,,39
2012-3-29,38,20,2,17,9,-1,84,63,39,29.21,29.14,29.08,10,10,10,8,2,,0.00,3,,194
2012-3-30,34,22,9,17,13,7,84,67,50,29.41,29.24,29.15,10,10,9,8,2,,T,6,Snow,196
2012-3-31,32,24,16,22,16,11,93,74,59,29.69,29.56,29.43,10,7,1,6,0,,0.01,7,Snow,216